[[{"header":{"parameterUnit":"m.s-1","parameterCategory":1,"la1":30.2991,"la2":30.254,"lo1":-89.0895,"lo2":-89.0444,"dy":0.0017,"dx":0.0017,"nx":28,"ny":28,"refTime":"2025-07-08T03:00:00:Z","depth":0,"parameterNumber":2,"parameterNumberName":"U-component_of_WINDS"},"data":[0,0,0,0,0,0,0,0,0,0,0,0,0,0,0,0,0,0,0,0,0,0,0,0,0,0,0,0,0,0,0,0,0,0,0,0,0,0,0,0,0,0,0,0,0,0,0,0,0,0,0,0,0,0,0,0,0,0,3.4889,3.4889,0,3.4931,3.4931,3.4932,3.4884,3.4882,3.488,3.4879,3.4922,3.4924,3.4927,0,0,0,0,0,0,0,0,0,0,0,0,0,3.4768,3.477,3.4889,3.4889,3.489,3.4931,3.4931,3.4932,3.4884,3.4882,3.488,3.4878,3.4921,3.4924,3.4927,0,0,0,0,0,0,0,0,0,0,0,0,0,3.4816,3.4771,3.4889,3.4871,3.487,3.4931,3.4931,3.4932,3.4885,3.4882,3.4879,3.4877,3.492,3.4924,3.4928,3.5008,0,0,3.4941,3.4943,0,0,0,0,0,0,0,0,3.4813,3.482,3.4873,3.4872,3.4871,3.4899,3.4904,3.4957,3.4885,3.4879,3.4879,3.4875,3.4916,3.4921,3.4934,3.501,3.5012,3.4941,3.4944,3.4946,3.4947,0,0,0,0,0,0,0,3.481,3.4818,3.4905,3.4874,3.4873,3.4861,3.4865,3.4914,3.4912,3.4879,3.4876,3.4882,3.4915,3.4931,3.4935,3.5012,3.4941,3.4945,3.4947,3.4949,3.5154,3.5157,0,0,0,0,0,0,3.4809,3.4816,3.4904,3.4907,3.4835,3.4865,3.487,3.4893,3.4912,3.4912,3.4884,3.4879,3.4925,3.493,3.4936,3.503,3.4946,3.495,3.4952,3.5152,3.5155,3.5158,0,0,0,0,0,0,3.4806,3.4817,3.4902,3.486,3.487,3.487,3.4897,3.4895,3.491,3.4915,3.4915,3.49,3.4923,3.4931,3.499,3.5031,3.4951,3.4955,3.5148,3.5153,3.5157,3.5219,0,0,0,0,0,0,3.4803,3.4816,3.4847,3.4861,3.4873,3.4956,3.49,3.4898,3.4918,3.4912,3.493,3.493,3.4921,3.4984,3.4994,3.5035,3.4959,3.5144,3.515,3.5155,3.5213,3.5225,3.5235,0,0,0,0,0,3.4799,3.4863,3.4849,3.486,3.4911,3.4958,3.4965,3.4953,3.4921,3.4952,3.4955,3.493,3.5025,3.4991,3.5002,3.5045,3.5142,3.5149,3.5155,3.5209,3.5223,3.5235,0,0,0,0,0,0,3.4854,3.4865,3.4849,3.492,3.4939,3.495,3.4988,3.4969,3.4997,3.499,3.4975,3.4979,3.5042,3.505,3.5011,3.5123,3.5078,3.5087,3.5115,3.5129,3.514,3.5136,3.4962,0,0,0,0,0,3.4874,3.4912,3.4919,3.4981,3.4991,3.4988,3.5009,3.4998,3.5016,3.5024,3.5031,3.505,3.5084,3.5107,3.5139,3.5215,3.5217,3.525,3.5261,3.527,3.5277,3.5316,3.533,3.518,3.518,3.518,0,0,3.4916,3.4927,3.4952,3.4992,3.5006,3.5044,3.4995,3.5039,3.5067,3.5031,3.5087,3.5093,3.5113,3.5181,3.5211,3.5189,3.5319,3.5278,3.5285,3.5288,3.5324,3.5339,3.5351,3.5184,3.5183,3.5183,0,0,3.5013,3.5026,3.5078,3.5092,3.5112,3.511,3.5123,3.5137,3.514,3.5196,3.5169,3.5203,3.5263,3.5278,3.5293,3.5395,3.5373,3.5406,3.5462,3.5501,3.5513,3.5523,3.5558,3.5571,3.5414,3.5414,3.5414,0,3.5063,3.512,3.5107,3.5152,3.517,3.5139,3.5192,3.5206,3.5236,3.5249,3.5224,3.5298,3.5309,3.5379,3.5404,3.5418,3.5431,3.5403,3.5512,3.5522,3.5532,3.5565,3.5578,3.5418,3.5418,3.5417,3.5417,0,3.518,3.522,3.526,3.5289,3.5312,3.5361,3.5355,3.538,3.5367,3.5367,3.5425,3.5438,3.5471,3.5487,3.5476,3.5555,3.5541,3.5514,3.5469,3.555,3.5581,3.5594,3.5424,3.5422,3.5421,3.542,0,0,3.5311,3.5333,3.5347,3.536,3.538,3.5411,3.5458,3.549,3.5511,3.5533,3.5571,3.5623,3.5598,3.5616,3.5606,3.564,3.5718,3.5609,3.5609,3.5627,3.5805,3.5823,3.5838,3.5704,3.5706,3.5708,3.5802,0,3.5407,3.5488,3.5478,3.5556,3.5592,3.5563,3.5604,3.5621,3.5622,3.5653,3.5655,3.569,3.5656,3.5666,3.5699,3.5701,3.5753,3.5695,3.5738,3.574,3.5732,3.5854,3.5874,3.5963,3.5814,3.5816,3.5818,0,3.5529,3.5555,3.5637,3.565,3.5665,3.5702,3.573,3.5761,3.5779,3.5777,3.5797,3.5781,3.5827,3.5783,3.5846,3.5806,3.5824,3.5828,3.5831,3.5833,3.5783,3.5858,3.5991,3.6003,3.5837,3.5836,3.5834,0,3.5615,3.567,3.5726,3.5738,3.5756,3.5782,3.5791,3.5806,3.5826,3.5851,3.5863,3.5894,3.591,3.5934,3.5926,3.5894,3.599,3.5945,3.5989,3.599,3.601,3.6008,3.6145,3.6024,3.6024,3.6023,3.6023,0,3.5722,3.5773,3.5764,3.5798,3.5854,3.5841,3.5897,3.5902,3.5916,3.595,3.5927,3.596,3.5948,3.598,3.5974,3.6026,3.6035,3.6034,3.6031,3.6035,3.6035,3.6045,3.6038,3.6027,3.6026,3.6025,3.6025,0,3.5827,3.5823,3.5881,3.5894,3.5898,3.5938,3.5948,3.598,3.598,3.6023,3.6033,3.6032,3.6068,3.6063,3.6103,3.6099,3.6164,3.6155,3.6158,3.6155,3.6199,3.6194,3.6345,3.6364,3.6233,3.6234,3.6235,0,3.5894,3.5932,3.5949,3.597,3.598,3.6015,3.6035,3.6024,3.6046,3.6069,3.6098,3.6131,3.6158,3.6216,3.6219,3.625,3.624,3.6291,3.6245,3.6246,3.6239,3.6236,3.6239,3.63,3.6301,3.6303,3.6304,0,3.6014,3.601,3.604,3.6069,3.6094,3.6116,3.6137,3.6155,3.6146,3.6172,3.6208,3.6229,3.6269,3.6303,3.6331,3.6339,3.632,3.6319,3.633,3.6333,3.6332,3.6331,3.6181,3.6315,3.6314,3.6313,3.6312,3.6312,3.6101,3.6133,3.6149,3.6183,3.6197,3.6216,3.6246,3.6249,3.6279,3.6311,3.6304,3.6344,3.6361,3.6397,3.6408,3.644,3.6421,3.6438,3.6442,3.6446,3.645,3.6329,3.6445,3.6445,3.6445,3.6444,3.6444,0,3.6218,3.6227,3.6258,3.6287,3.6313,3.6293,3.6314,3.6337,3.6373,3.639,3.6417,3.6458,3.649,3.6496,3.6526,3.655,3.6542,3.6558,3.6555,3.6557,3.6466,3.6452,3.6564,3.6564,3.6564,3.6564,3.6564,3.6564,3.6282,3.6334,3.6332,3.6391,3.64,3.644,3.6453,3.6471,3.6484,3.6531,3.6557,3.6561,3.6573,3.6604,3.6633,3.6633,3.6645,3.6665,3.6662,3.6576,3.6564,3.6552,3.6539,3.6668,3.6668,3.675,3.6751,3.6751]},{"header":{"parameterUnit":"m.s-1","parameterCategory":1,"la1":30.2991,"la2":30.254,"lo1":-89.0895,"lo2":-89.0444,"dy":0.0017,"dx":0.0017,"nx":28,"ny":28,"refTime":"2025-07-08T03:00:00:Z","depth":0,"parameterNumber":3,"parameterNumberName":"V-component_of_WINDS"},"data":[0,0,0,0,0,0,0,0,0,0,0,0,0,0,0,0,0,0,0,0,0,0,0,0,0,0,0,0,0,0,0,0,0,0,0,0,0,0,0,0,0,0,0,0,0,0,0,0,0,0,0,0,0,0,0,0,0,0,3.4728,3.4731,0,3.5016,3.5019,3.5023,3.5115,3.5114,3.5113,3.5112,3.5401,3.541,3.5419,0,0,0,0,0,0,0,0,0,0,0,0,0,3.4249,3.4257,3.4728,3.4731,3.4735,3.5016,3.5019,3.5023,3.5116,3.5114,3.5112,3.5111,3.5398,3.5409,3.542,0,0,0,0,0,0,0,0,0,0,0,0,0,3.4489,3.426,3.4727,3.4815,3.4826,3.5015,3.502,3.5024,3.5116,3.5114,3.5112,3.511,3.5395,3.5408,3.5421,3.5542,0,0,3.5462,3.5468,0,0,0,0,0,0,0,0,3.4475,3.4506,3.4798,3.4809,3.4822,3.5028,3.4957,3.5198,3.5116,3.5005,3.5111,3.5109,3.5278,3.5301,3.5359,3.5556,3.5568,3.5463,3.5471,3.5477,3.5481,0,0,0,0,0,0,0,3.4458,3.4494,3.4842,3.4802,3.4817,3.4837,3.4869,3.5003,3.5149,3.5015,3.5022,3.5056,3.5284,3.5346,3.5367,3.5573,3.5463,3.5475,3.5483,3.5488,3.5878,3.588,0,0,0,0,0,0,3.4428,3.448,3.4833,3.485,3.464,3.4847,3.4883,3.4963,3.5148,3.5174,3.5057,3.5059,3.5324,3.5351,3.5377,3.5529,3.5477,3.549,3.5497,3.5875,3.5878,3.5881,0,0,0,0,0,0,3.4417,3.4459,3.4821,3.4667,3.4715,3.4858,3.4947,3.497,3.5032,3.518,3.5205,3.5094,3.5324,3.5358,3.55,3.554,3.5496,3.5508,3.5873,3.5876,3.5879,3.5834,0,0,0,0,0,0,3.4403,3.4454,3.4504,3.4668,3.4723,3.4941,3.495,3.4977,3.5056,3.5061,3.5221,3.5246,3.5325,3.5479,3.5513,3.5558,3.5518,3.587,3.5874,3.5878,3.5832,3.5835,3.5838,0,0,0,0,0,3.4386,3.448,3.4506,3.4548,3.4789,3.4944,3.4975,3.5066,3.5059,3.5108,3.5202,3.5241,3.553,3.5493,3.5532,3.5581,3.5868,3.5873,3.5878,3.5831,3.5835,3.5838,0,0,0,0,0,0,3.4317,3.4503,3.4534,3.4685,3.4797,3.4959,3.5025,3.5067,3.5183,3.5183,3.5288,3.5324,3.5456,3.5533,3.5489,3.5705,3.57,3.5713,3.5651,3.5656,3.5658,3.5637,3.5529,0,0,0,0,0,3.4319,3.4431,3.4587,3.4704,3.4759,3.4882,3.4953,3.5012,3.5133,3.5181,3.5285,3.5399,3.5515,3.559,3.5705,3.5843,3.5877,3.5895,3.5898,3.59,3.591,3.5984,3.5993,3.5898,3.5898,3.5898,0,0,3.4324,3.444,3.4505,3.4693,3.4788,3.4899,3.4922,3.5039,3.5122,3.5198,3.5338,3.5418,3.5551,3.569,3.5757,3.5758,3.5943,3.5906,3.5906,3.5916,3.5991,3.6,3.6007,3.5901,3.5901,3.59,0,0,3.4392,3.4492,3.4599,3.4692,3.4835,3.4915,3.494,3.5095,3.5151,3.5293,3.5352,3.5449,3.5649,3.574,3.5813,3.5908,3.5947,3.5942,3.5957,3.6029,3.6036,3.6043,3.6075,3.6085,3.5952,3.5952,3.5952,0,3.4381,3.4553,3.4648,3.4762,3.4841,3.4916,3.5022,3.5108,3.528,3.5332,3.5331,3.5579,3.5675,3.5834,3.5857,3.5914,3.5944,3.5926,3.6028,3.6036,3.6044,3.6075,3.6087,3.595,3.5951,3.5951,3.5951,0,3.4531,3.4648,3.4717,3.4882,3.4969,3.5079,3.5187,3.5263,3.5313,3.5392,3.5533,3.5649,3.5787,3.5829,3.588,3.5995,3.5991,3.6007,3.6004,3.605,3.6081,3.6094,3.5948,3.5949,3.5949,3.595,0,0,3.4566,3.4779,3.4802,3.4876,3.5037,3.5128,3.5239,3.5375,3.5437,3.5551,3.5645,3.5809,3.5824,3.5906,3.5966,3.6029,3.6094,3.6038,3.6042,3.6042,3.6224,3.621,3.6223,3.612,3.6122,3.6124,3.6212,0,3.4652,3.4857,3.4943,3.5105,3.5213,3.5282,3.5378,3.5485,3.556,3.566,3.5742,3.5856,3.5868,3.5918,3.5983,3.6072,3.6131,3.6067,3.6205,3.6209,3.6169,3.624,3.6227,3.6304,3.6225,3.6227,3.6229,0,3.4782,3.4898,3.5071,3.5215,3.5263,3.5348,3.5478,3.5573,3.5694,3.5743,3.5832,3.5889,3.6004,3.5992,3.6149,3.6103,3.6164,3.6216,3.6221,3.6237,3.6222,3.6256,3.6331,3.6342,3.6249,3.6247,3.6246,0,3.4788,3.4986,3.5115,3.5176,3.5348,3.5405,3.5478,3.5597,3.5672,3.5784,3.5833,3.5955,3.6023,3.6115,3.6201,3.6185,3.6349,3.6345,3.6391,3.6389,3.6424,3.6421,3.6508,3.6463,3.6463,3.6463,3.6463,0,3.4876,3.4978,3.5119,3.5198,3.5314,3.541,3.5521,3.5599,3.5703,3.5795,3.5862,3.5947,3.6057,3.6154,3.6222,3.634,3.637,3.6411,3.6428,3.6406,3.64,3.6447,3.6444,3.6466,3.6465,3.6465,3.6464,0,3.4902,3.5001,3.5145,3.5295,3.5334,3.5413,3.5539,3.5616,3.5693,3.5809,3.5842,3.5962,3.608,3.6175,3.6329,3.6375,3.6498,3.6517,3.6457,3.6466,3.6506,3.6501,3.6627,3.6647,3.6589,3.6589,3.659,0,3.4952,3.5032,3.519,3.5257,3.533,3.5438,3.5514,3.561,3.5686,3.5826,3.5886,3.6008,3.6112,3.6297,3.6396,3.6512,3.6535,3.6571,3.6553,3.6526,3.6533,3.6527,3.6534,3.6572,3.6573,3.6573,3.6573,0,3.5028,3.5072,3.5181,3.5305,3.5394,3.5496,3.56,3.565,3.5764,3.5845,3.5967,3.6047,3.6204,3.6324,3.645,3.6523,3.6566,3.6577,3.6594,3.6572,3.6533,3.6553,3.6461,3.6574,3.6574,3.6574,3.6574,3.6574,3.5067,3.5141,3.5262,3.5379,3.5467,3.5561,3.564,3.5726,3.583,3.5966,3.6015,3.6139,3.6252,3.6427,3.65,3.6596,3.66,3.6624,3.663,3.6635,3.6631,3.6517,3.6619,3.6619,3.6619,3.6619,3.6619,0,3.5146,3.5226,3.5333,3.5476,3.5566,3.56,3.5715,3.5788,3.5897,3.6,3.61,3.6237,3.6353,3.6459,3.6579,3.6635,3.6657,3.6663,3.666,3.6675,3.6622,3.6595,3.6643,3.6643,3.6643,3.6642,3.6642,3.6642,3.5197,3.5322,3.538,3.5547,3.5627,3.575,3.5812,3.5898,3.598,3.6132,3.6228,3.6297,3.64,3.6527,3.6633,3.6661,3.6701,3.6701,3.6734,3.6683,3.6679,3.6676,3.6651,3.671,3.671,3.6779,3.678,3.678]}]]